Location: Middlebury
(44.0153°N, 73.1678°W)
Time: 17:22:36
(UTC-04:00)

UWE-3 - Pass Details

Date: 01 July 2024
Orbit: 566 x 652 km, 97.8° (Epoch: 21 July)

Event Time Altitude Azimuth Distance (km) Brightness Sun altitude
Rises 02:38:07 0° 25° (NNE) 2,825 ? -19.0°
Reaches altitude 10° 02:40:38 10° 39° (NE) 1,905 ? -18.8°
Maximum altitude 02:44:01 24° 94° (E) 1,199 ? -18.5°
Enters shadow 02:46:27 15° 141° (SE) 1,591 ? -18.4°
